{"data":{"norad_id":62694,"epoch":"2026-05-25T03:20:37.202208Z","epoch_age_seconds":63200,"freshness":"FRESH","line1":"1 62694U 25009CP  26145.13931947  .00001667  00000+0  15745-3 0  9992","line2":"2 62694  97.7027 224.0103 0004681 109.1459 251.0268 14.95045551 73914","mean_motion":14.95045551,"eccentricity":0.0004681,"inclination_deg":97.7027,"raan_deg":224.0103,"arg_perigee_deg":109.1459,"mean_anomaly_deg":251.0268,"bstar":0.00015745,"rev_number":7391,"period_min":96.318135526829,"perigee_km":578.9732202009,"apogee_km":585.48951706761,"semimajor_km":6960.3683686343,"source":"CELESTRAK","updated_at":"2026-05-25T13:38:13.537180Z"}}